Find Starlink 30427

NORAD ID: 57865 Int'l Des: 2023-144 Owner: SPXS Country: US Constellation: starlink operational
LEOCIRCULAR

リアルタイム位置

3D地球を読み込み中...

Starlink 30427について

説明を読み込み中...

次回通過

Passes for default location (London). Set your location on the main map for personalized predictions.

高度履歴

Loading altitude history...

軌道要素

1 57865U 23144B 26125.93585706 .00005171 00000-0 19721-3 0 9991
2 57865 43.0038 321.8078 0001194 261.0833 98.9883 15.27594242146353
Epoch: May 5, 2026 • Age: 6 hours

現在のステータス

高度 495.0 km
速度 7.62 km/s
衛星直下点 -41.82°S, 75.36°W
打ち上げ日 Sep 16, 2023
運用期間 2.6 years
タイプ internet

技術仕様

分類 Payload
質量 730.00 kg
乾燥質量 700.00 kg
総質量 730.00 kg
長さ 0.30 m
直径 4.10 m
スパン 29.00 m
形状 Box + pan
製造者 SPXS
バスタイプ Starlink V2M
フェーズステータス In Orbit
所有者/国 SPXS/US

Most Searched